Wind_Speed
9 9 10 12 13 14 16 17 18 20 24 26 30 34 35 35 35 36 38 38 37 37 36 34 30 28 27 26 25 20 17 9 15 18 14 11 12 16 22 19 17 21 22 26 29
9 10 9 10 10 11 12 14 15 17 18 20 22 26 31 34 36 37 37 38 40 40 37 37 35 32 32 32 34 32 22 13 18 16 17 17 21 25 16 17 16 14 19 22 26
11 11 10 10 9 10 10 11 12 13 14 16 17 19 22 26 30 34 37 39 39 39 40 41 40 37 37 36 37 34 32 13 15 19 15 6 19 19 18 15 13 9 14 17 23
11 13 12 11 11 11 11 11 11 11 12 12 13 15 17 19 21 24 29 34 39 40 40 42 43 41 41 40 39 38 35 33 31 20 20 17 10 13 13 14 7 9 8 11 16
12 13 14 14 13 13 13 12 12 12 12 11 12 12 13 14 16 18 21 24 30 33 39 43 42 45 46 45 42 42 40 38 35 32 20 21 18 15 10 11 11 8 6 7 11
14 13 13 14 14 13 13 12 12 12 13 14 14 14 15 16 17 18 19 20 23 23 28 36 40 43 46 49 47 47 45 42 40 33 32 28 21 13 11 16 17 10 4 5 5
15 14 12 11 11 10 10 11 12 13 14 15 15 16 18 19 20 20 21 22 23 23 24 27 30 34 41 47 49 51 47 45 43 38 36 32 31 24 19 18 16 13 10 3 0
14 12 12 9 7 6 6 6 7 8 10 11 12 13 14 16 18 21 24 26 27 26 26 26 25 24 33 41 45 48 51 48 44 41 38 35 35 37 31 19 17 13 9 8 2
10 9 8 7 5 3 3 3 3 5 7 8 10 12 13 14 17 18 20 21 24 27 30 30 27 25 29 31 37 42 46 48 49 45 40 35 28 27 27 25 21 16 11 9 7
10 9 10 10 6 3 2 1 4 7 9 11 12 14 15 17 16 18 20 22 24 25 27 28 28 28 30 31 31 34 38 44 47 47 46 41 43 36 33 28 25 21 15 17 8
18 18 15 11 7 4 1 1 5 7 8 8 11 11 13 15 13 13 13 17 19 23 29 29 25 26 32 36 34 33 33 36 42 45 48 47 46 38 34 36 33 27 20 23 17
23 20 16 12 9 6 3 2 6 7 10 11 12 14 15 17 16 19 19 17 16 17 19 22 23 28 32 34 37 37 35 34 41 38 40 44 48 43 32 30 36 32 29 30 26
20 18 15 12 9 7 6 7 11 11 10 16 14 18 19 20 21 21 21 21 20 20 20 18 18 21 27 33 35 38 38 35 38 45 44 38 42 49 42 30 33 35 35 34 32
15 14 13 11 9 8 8 12 15 16 18 18 19 16 20 23 21 22 23 21 22 25 22 21 22 23 24 26 30 34 35 41 38 39 42 49 44 45 51 44 37 35 39 37 40
10 8 9 11 12 10 14 18 19 20 21 24 23 24 25 24 23 23 24 24 24 28 26 25 25 24 25 27 28 24 31 36 42 39 37 38 45 51 44 43 39 36 38 40 38
10 10 9 11 12 14 18 20 21 23 25 25 26 27 29 30 29 26 26 28 30 30 28 28 27 25 25 27 28 27 30 31 39 41 42 37 40 40 41 40 40 39 43 41 38
9 10 12 12 13 16 18 20 22 23 28 31 30 29 30 31 32 33 31 30 33 32 34 33 33 32 30 28 28 30 32 33 33 40 45 42 43 43 40 40 39 39 46 47 43
13 14 17 19 20 22 21 22 24 25 25 29 33 36 32 34 36 37 35 34 33 35 34 33 34 33 33 34 33 34 33 32 34 34 44 54 51 46 45 44 45 38 38 34 40
17 19 21 24 26 26 27 29 30 27 26 27 32 38 40 38 35 37 37 36 36 34 35 35 34 37 39 38 37 37 35 35 35 40 40 50 54 54 50 53 52 50 38 39 38
22 25 27 29 30 30 33 36 35 33 32 31 29 33 38 42 40 34 37 36 39 38 36 35 37 38 37 38 35 39 39 39 38 39 43 44 48 52 59 56 53 55 52 43 39
27 31 32 34 34 34 37 40 39 40 37 36 34 30 35 39 39 36 38 42 39 41 35 30 32 36 34 36 37 39 40 40 39 38 41 45 46 47 53 63 58 58 54 57 42
35 36 38 38 38 39 43 44 44 43 43 39 39 37 35 35 34 36 35 40 39 41 40 36 30 30 33 31 32 36 34 35 35 37 38 42 44 46 48 52 65 63 59 60 58
42 45 46 44 42 43 46 49 50 47 46 42 43 41 40 38 33 31 32 37 37 38 39 38 32 30 28 31 32 31 30 32 30 31 32 40 43 45 46 48 56 63 68 62 60
47 49 52 51 49 48 49 51 52 52 52 45 47 46 46 42 39 32 34 37 36 39 40 37 35 30 32 32 31 31 30 31 33 32 30 36 41 40 44 48 51 55 62 67 70
54 54 56 55 52 53 55 56 55 57 54 53 51 48 47 47 46 37 35 37 40 39 41 40 37 33 36 36 35 33 32 32 36 32 30 32 36 35 38 42 46 48 52 56 64
61 61 60 58 55 55 57 59 60 62 62 57 54 53 48 47 48 45 40 41 44 41 38 40 39 38 41 43 40 36 32 32 37 38 31 30 30 33 35 41 45 47 49 51 54
63 64 63 62 60 60 60 62 65 64 66 65 63 58 55 48 50 51 48 46 46 47 44 46 44 45 47 48 44 35 37 38 35 35 37 31 28 31 38 42 44 46 47 45 46
Wind_Direction
228 217 209 204 207 211 216 216 218 221 227 229 231 231 231 230 229 228 229 229 228 227 223 222 223 222 226 214 202 205 232 229 250 238 234 223 233 290 305 320 341 352 1 10 18
217 210 206 199 194 198 203 207 213 215 218 222 226 229 231 231 231 228 227 229 230 230 228 223 222 223 227 220 217 207 230 251 180 198 223 194 224 270 295 311 331 347 360 9 16
213 210 204 204 198 196 201 200 203 210 213 218 222 224 227 229 231 232 231 230 229 229 229 228 224 222 226 227 224 227 230 217 204 230 242 244 256 261 275 289 315 346 5 13 12
213 210 203 204 202 202 206 210 211 215 218 220 222 222 223 225 227 230 233 234 233 231 229 229 228 225 226 228 227 229 232 234 228 239 236 236 230 269 276 260 298 351 355 11 17
214 213 212 211 208 208 213 218 221 226 228 230 232 233 232 232 231 231 234 236 236 235 234 230 228 228 227 229 229 230 230 233 236 231 231 241 240 257 253 229 284 336 334 356 19
212 213 217 218 221 221 226 230 236 240 245 246 245 244 242 242 243 241 237 237 238 231 237 236 233 232 230 228 229 232 233 232 237 232 238 232 237 247 251 245 263 279 279 340 13
211 213 214 220 227 234 238 246 253 255 259 261 259 255 252 248 247 245 245 246 246 239 231 238 233 235 235 232 230 233 234 234 234 238 235 231 236 241 253 244 248 258 255 300 150
209 207 209 212 216 227 235 243 255 259 259 261 261 256 250 252 249 249 248 247 247 248 241 237 233 230 240 237 234 235 235 235 236 235 237 235 239 240 245 237 243 248 251 224 166
189 194 190 175 172 206 224 248 251 250 255 261 262 265 262 249 259 255 253 252 252 250 248 244 237 232 238 242 239 236 236 236 234 235 237 231 224 233 225 224 229 224 235 227 173
143 144 139 131 127 128 156 218 256 267 269 275 274 272 269 270 261 262 264 259 254 250 249 245 240 235 240 241 242 238 238 236 234 233 234 236 235 241 243 236 225 220 222 220 216
112 115 114 114 117 123 125 272 280 280 285 281 280 278 273 271 274 268 268 267 261 255 252 252 246 242 240 240 239 237 234 234 236 233 231 233 236 238 243 235 227 222 216 219 186
98 99 99 99 91 75 51 303 302 295 295 288 283 279 272 270 269 274 279 272 267 263 260 256 249 244 242 241 238 237 234 231 222 224 228 231 238 229 225 233 224 222 218 219 210
86 85 79 73 64 41 9 336 323 328 325 304 299 286 284 280 276 275 269 270 267 262 260 259 251 247 246 244 239 236 233 234 233 230 236 228 226 224 225 230 220 222 227 225 220
76 68 55 40 37 24 351 328 322 314 307 296 306 304 284 278 276 275 267 265 266 265 261 260 259 256 249 251 246 238 237 234 232 230 234 243 235 230 231 230 228 225 229 230 224
73 52 25 14 5 351 330 324 321 317 310 303 298 292 288 284 276 264 267 263 264 263 261 259 261 261 258 251 249 243 238 238 233 230 223 234 231 227 226 225 228 228 236 232 230
33 32 13 354 352 349 340 338 333 318 309 301 291 286 281 282 279 275 259 263 262 258 257 257 255 254 253 255 250 246 246 239 235 229 222 222 220 219 225 227 224 217 216 222 232
356 348 339 325 324 329 330 335 337 318 303 300 298 294 287 282 280 278 273 261 261 259 254 254 259 258 253 246 247 249 246 242 239 230 226 214 213 216 219 220 223 225 222 224 229
340 335 326 324 321 317 320 328 330 324 309 305 300 294 296 286 280 275 271 266 261 256 256 256 254 258 260 258 254 251 247 247 242 237 229 219 225 224 225 217 217 226 225 223 236
333 328 322 321 318 316 315 319 324 324 321 304 305 300 300 298 288 278 272 265 258 256 251 254 253 253 260 262 257 253 254 251 241 237 235 229 232 230 227 223 223 224 231 240 233
330 326 326 321 317 314 310 315 320 327 320 316 311 298 295 296 294 281 271 260 259 254 251 250 252 255 260 258 256 262 257 252 247 238 234 233 234 237 230 227 231 231 226 219 217
322 323 322 322 314 310 308 313 316 325 323 315 309 303 295 294 290 280 266 265 252 249 245 247 262 253 255 257 259 260 255 252 249 245 236 233 234 237 238 229 233 235 231 224 215
318 319 321 320 312 312 311 313 317 322 319 319 309 302 300 295 289 280 267 263 260 255 244 242 249 263 252 261 261 259 255 251 246 242 240 236 234 239 243 239 232 233 236 233 239
316 316 319 318 310 311 310 313 315 319 319 309 301 302 298 296 292 276 267 261 257 252 247 243 238 255 254 255 258 258 254 251 241 243 246 240 235 239 243 244 238 232 233 234 236
311 313 314 314 313 311 311 311 315 315 315 308 306 304 293 293 289 287 264 259 253 249 245 239 241 240 257 256 256 256 249 246 240 241 246 241 238 239 246 239 240 234 230 232 235
308 309 310 310 309 310 311 312 312 312 309 311 304 301 292 289 286 286 273 258 256 249 244 237 240 243 256 252 250 249 249 242 235 235 238 249 239 240 241 232 233 235 232 232 234
307 306 307 307 306 306 308 309 310 309 307 305 303 297 288 284 281 281 275 264 255 249 247 245 237 235 246 248 240 240 242 241 238 228 234 248 251 243 233 227 227 227 232 232 234
304 304 305 304 304 304 305 306 307 306 304 300 303 294 284 282 275 272 271 268 262 253 249 244 241 237 234 236 240 241 241 237 232 234 233 233 236 242 240 226 226 226 227 232 233
Height
10898 10899 10900 10901 10903 10905 10908 10910 10912 10913 10914 10915 10917 10920 10923 10926 10928 10931 10934 10935 10937 10940 10945 10950 10951 10953 10953 10957 10959 10959 10957 10959 10962 10963 10964 10964 10965 10964 10962 10962 10960 10955 10951 10944 10939
10896 10897 10899 10900 10902 10904 10906 10907 10909 10910 10911 10912 10914 10915 10917 10920 10922 10925 10928 10929 10931 10934 10939 10943 10946 10949 10949 10950 10952 10955 10957 10958 10960 10960 10960 10961 10962 10962 10961 10961 10962 10958 10951 10947 10943
10894 10896 10898 10899 10901 10903 10904 10906 10907 10908 10909 10910 10911 10912 10914 10915 10916 10918 10920 10922 10924 10929 10933 10935 10939 10943 10943 10945 10949 10953 10955 10957 10957 10958 10959 10961 10960 10959 10958 10961 10963 10960 10954 10951 10947
10892 10894 10896 10898 10900 10902 10903 10905 10906 10906 10907 10908 10909 10910 10911 10912 10913 10913 10914 10915 10917 10922 10925 10928 10933 10938 10938 10939 10942 10945 10949 10949 10953 10955 10956 10957 10958 10958 10958 10959 10961 10960 10957 10953 10951
10890 10892 10894 10897 10899 10901 10902 10903 10904 10905 10906 10907 10907 10908 10909 10910 10910 10910 10910 10910 10912 10915 10917 10921 10925 10929 10931 10933 10937 10939 10941 10944 10948 10951 10953 10956 10956 10955 10956 10956 10957 10959 10957 10956 10953
10888 10890 10892 10894 10897 10899 10901 10902 10903 10903 10904 10904 10905 10906 10907 10907 10907 10906 10906 10906 10907 10910 10911 10913 10918 10920 10923 10927 10931 10931 10933 10939 10943 10946 10948 10952 10953 10956 10956 10955 10956 10957 10957 10957 10954
10885 10888 10891 10893 10895 10897 10899 10900 10900 10901 10901 10901 10902 10903 10903 10903 10903 10903 10903 10903 10902 10904 10906 10906 10911 10914 10913 10918 10922 10924 10928 10932 10936 10940 10943 10946 10949 10953 10955 10955 10954 10954 10957 10957 10956
10883 10886 10889 10891 10893 10895 10896 10898 10898 10899 10899 10899 10899 10899 10899 10899 10899 10898 10898 10899 10899 10899 10900 10902 10906 10908 10905 10908 10913 10915 10920 10926 10930 10935 10937 10941 10945 10948 10952 10954 10953 10952 10953 10957 10957
10881 10885 10888 10890 10892 10894 10895 10896 10897 10897 10896 10896 10896 10895 10895 10896 10895 10894 10894 10894 10894 10894 10894 10896 10900 10903 10901 10902 10904 10908 10911 10916 10921 10926 10931 10935 10938 10942 10945 10949 10951 10951 10950 10953 10955
10881 10884 10887 10890 10892 10894 10895 10895 10895 10895 10895 10894 10893 10893 10892 10891 10892 10891 10889 10889 10889 10889 10888 10890 10894 10898 10897 10896 10898 10901 10903 10907 10913 10919 10923 10926 10932 10935 10939 10945 10947 10948 10949 10950 10953
10882 10885 10888 10890 10892 10894 10895 10895 10895 10894 10893 10893 10892 10891 10889 10888 10888 10887 10887 10885 10884 10883 10883 10885 10890 10891 10889 10889 10891 10894 10897 10901 10906 10910 10915 10919 10923 10929 10933 10937 10941 10944 10944 10947 10949
10885 10887 10889 10892 10893 10894 10894 10894 10893 10892 10892 10891 10890 10889 10887 10887 10886 10884 10883 10882 10881 10879 10879 10881 10883 10883 10882 10882 10885 10888 10892 10896 10899 10904 10907 10911 10915 10922 10927 10928 10934 10939 10940 10941 10943
10889 10890 10892 10893 10894 10894 10894 10893 10891 10891 10891 10888 10888 10886 10885 10884 10882 10881 10880 10878 10877 10876 10876 10876 10877 10876 10876 10876 10879 10882 10887 10891 10892 10897 10900 10904 10910 10913 10918 10921 10925 10930 10935 10938 10939
10892 10893 10893 10894 10894 10893 10892 10890 10889 10888 10888 10886 10885 10883 10880 10878 10878 10876 10875 10875 10873 10871 10872 10872 10872 10872 10872 10871 10874 10879 10882 10881 10885 10890 10894 10895 10903 10906 10910 10916 10919 10925 10930 10932 10933
10893 10893 10893 10893 10892 10891 10890 10888 10886 10885 10883 10881 10880 10878 10874 10873 10873 10872 10870 10869 10869 10866 10866 10867 10866 10866 10867 10867 10868 10872 10874 10876 10880 10885 10890 10889 10895 10898 10902 10908 10914 10919 10922 10926 10928
10893 10893 10893 10892 10890 10890 10887 10885 10883 10881 10878 10875 10873 10870 10868 10865 10864 10864 10864 10863 10861 10861 10860 10859 10860 10861 10861 10862 10863 10865 10866 10869 10872 10878 10883 10885 10889 10891 10896 10901 10907 10913 10917 10919 10921
10892 10891 10890 10889 10887 10885 10884 10882 10880 10876 10871 10867 10865 10864 10861 10858 10855 10854 10856 10857 10854 10853 10851 10852 10852 10853 10854 10856 10857 10858 10859 10862 10866 10870 10876 10881 10880 10885 10891 10897 10902 10906 10911 10913 10916
10889 10888 10886 10884 10883 10881 10878 10877 10875 10872 10867 10861 10855 10851 10852 10851 10847 10843 10845 10846 10845 10845 10844 10844 10846 10845 10845 10847 10849 10851 10853 10856 10860 10864 10866 10871 10872 10877 10882 10891 10895 10900 10905 10909 10910
10886 10883 10881 10878 10875 10873 10871 10869 10868 10865 10861 10856 10850 10842 10838 10838 10839 10833 10833 10833 10834 10835 10835 10836 10837 10837 10836 10837 10840 10842 10846 10848 10851 10854 10858 10863 10866 10869 10874 10881 10887 10894 10897 10901 10905
10881 10877 10875 10871 10868 10865 10861 10859 10857 10856 10852 10848 10846 10839 10832 10826 10825 10823 10819 10821 10822 10823 10825 10828 10828 10828 10827 10827 10831 10831 10836 10838 10841 10846 10850 10854 10856 10857 10862 10871 10878 10886 10890 10893 10898
10874 10871 10867 10864 10860 10856 10851 10847 10845 10843 10841 10836 10834 10832 10827 10820 10814 10812 10809 10805 10810 10811 10816 10818 10817 10819 10817 10818 10822 10821 10824 10828 10832 10836 10840 10844 10846 10845 10851 10860 10867 10871 10878 10883 10889
10864 10863 10860 10856 10849 10845 10839 10835 10833 10831 10827 10824 10818 10816 10814 10812 10806 10803 10801 10797 10798 10802 10805 10807 10810 10808 10808 10808 10811 10811 10813 10818 10822 10826 10829 10833 10836 10835 10837 10844 10853 10859 10866 10873 10880
10854 10850 10849 10847 10842 10836 10829 10823 10818 10818 10815 10811 10804 10802 10798 10797 10796 10793 10789 10787 10789 10790 10794 10796 10799 10798 10799 10799 10800 10802 10805 10808 10813 10818 10821 10823 10824 10826 10826 10829 10837 10847 10853 10862 10869
10846 10840 10834 10832 10828 10824 10818 10813 10806 10801 10797 10796 10791 10788 10784 10782 10781 10782 10780 10777 10776 10777 10780 10784 10786 10789 10788 10789 10793 10793 10795 10800 10805 10809 10813 10813 10814 10817 10817 10819 10822 10832 10838 10846 10856
10833 10830 10825 10821 10815 10809 10803 10798 10793 10786 10781 10781 10776 10774 10771 10767 10765 10769 10767 10764 10765 10766 10767 10770 10773 10776 10777 10779 10783 10785 10787 10791 10796 10802 10805 10807 10806 10808 10810 10809 10812 10818 10826 10834 10839
10819 10813 10812 10808 10805 10798 10794 10786 10780 10772 10763 10763 10761 10758 10757 10756 10753 10752 10753 10751 10749 10754 10754 10755 10760 10762 10766 10767 10772 10775 10780 10781 10785 10792 10796 10800 10800 10797 10799 10800 10802 10806 10814 10824 10832
10804 10798 10793 10790 10788 10784 10780 10773 10766 10760 10747 10741 10743 10740 10737 10740 10738 10735 10735 10736 10734 10736 10739 10742 10745 10749 10753 10754 10758 10768 10769 10769 10775 10782 10788 10794 10793 10792 10790 10790 10793 10798 10804 10813 10822